Terminal Aerodrome Forecast
Issued by NWS Green Bay, WI

Home | Current Version | Previous Version | Graphics & Text | Print | Product List | Glossary On
Versions: 1 2 3 4 5 6 7 8 9 10 11 12 13 14 15 16 17 18 19 20 21 22 23 24 25 26 27 28 29 30 31 32 33 34 35 36 37 38 39 40 41 42 43 44 45 46 47 48
000
FTUS43 KGRB 201500 AAA
TAFGRB
TAF AMD
KGRB 201517Z 2015/2112 33006KT P6SM OVC014
      TEMPO 2015/2017 SCT014 BKN040
     FM201700 30005KT P6SM BKN040
     FM202300 13005KT P6SM SCT040
     FM210500 11003KT 5SM BR SCT040 SCT070
     FM211000 08003KT 3SM BR SCT040 BKN070=

USA.gov is the U.S. government's official web portal to all federal, state and local government web resources and services.